Zakynthos, Greece

5:26 PM EEST on June 27, 2017 (GMT +0300)
Dionysios Solomos

Weather History for LGZA - June, 2013

Change the Weather History Date:

Saturday, June 15, 2013

  Actual Average Record
Temperature  
Mean Temperature 76 °F -  
Max Temperature 87 °F 84 °F 96 °F (2000)
Min Temperature 64 °F 67 °F 57 °F (1998)
Cooling Degree Days 10    
Growing Degree Days 26 (Base 50)    
Moisture  
Dew Point 61 °F    
Average Humidity 55    
Maximum Humidity 83    
Minimum Humidity 38    
Precipitation  
Precipitation 0.00 in 0.01 in - ()
Sea Level Pressure  
Sea Level Pressure 29.95 in    
Wind  
Wind Speed 3 mph ()    
Max Wind Speed 8 mph    
Max Gust Speed -    
Visibility 6.2 miles    
Events      
Averages and records for this station are not official NWS values.
T = Trace of Precipitation, MM = Missing Value Source: Averaged Metar Reports

Daily Weather History Graph

Daily Weather History Graph

Search for Another Location

Airport or City:

Trip Planner

Search our weather history database for the weather conditions in past years. The results will help you decide how hot, cold, wet, or windy it might be!

Date:

Astronomy

Jun. 15, 2013 Rise Set
Actual Time 6:14 AM EEST 8:59 PM EEST
Civil Twilight 5:42 AM EEST 9:31 PM EEST
Nautical Twilight 5:03 AM EEST 10:10 PM EEST
Astronomical Twilight 4:19 AM EEST 10:54 PM EEST
Moon 12:24 PM EEST (6/15) 12:32 AM EEST (6/15)
Length of Visible Light 15h 48m
Length of Day
14h 45m
Waxing Crescent, 36% of the Moon is Illuminated
Jun 15
Waxing Crescent
Jun 16
First Quarter
Jun 23
Full
Jun 30
Last Quarter
Jul 8
New

Hourly Weather History & Observations

Time (EEST) Temp. Heat Index Dew Point Humidity Pressure Visibility Wind Dir Wind Speed Gust Speed Precip Events Conditions
7:20 AM 64.4 °F - 59.0 °F 83% 29.95 in 6.2 mi Calm Calm - N/A   Partly Cloudy
7:50 AM 68.0 °F - 59.0 °F 73% 29.95 in 6.2 mi Calm Calm - N/A   Partly Cloudy
8:20 AM 71.6 °F - 62.6 °F 73% 29.95 in 6.2 mi Calm Calm - N/A   Partly Cloudy
8:50 AM 73.4 °F - 62.6 °F 69% 29.95 in 6.2 mi Calm Calm - N/A   Partly Cloudy
9:20 AM 75.2 °F - 62.6 °F 65% 29.98 in 6.2 mi Calm Calm - N/A   Partly Cloudy
9:50 AM 77.0 °F - 62.6 °F 61% 29.98 in 6.2 mi SE 4.6 mph - N/A   Partly Cloudy
10:20 AM 75.2 °F - 62.6 °F 65% 29.98 in 6.2 mi SE 4.6 mph - N/A   Partly Cloudy
10:50 AM 77.0 °F - 62.6 °F 61% 29.98 in 6.2 mi SE 4.6 mph - N/A   Partly Cloudy
11:20 AM 78.8 °F - 62.6 °F 57% 29.98 in 6.2 mi SE 4.6 mph - N/A   Partly Cloudy
11:50 AM 77.0 °F - 62.6 °F 61% 29.98 in 6.2 mi SE 5.8 mph - N/A   Partly Cloudy
12:20 PM 77.0 °F - 60.8 °F 57% 29.98 in 6.2 mi SSE 4.6 mph - N/A   Partly Cloudy
12:50 PM 77.0 °F - 60.8 °F 57% 29.95 in 6.2 mi SE 6.9 mph - N/A   Partly Cloudy
1:20 PM 78.8 °F - 60.8 °F 54% 29.95 in 6.2 mi SE 5.8 mph - N/A   Partly Cloudy
1:50 PM 82.4 °F 82.5 °F 59.0 °F 45% 29.95 in 6.2 mi SE 4.6 mph - N/A   Partly Cloudy
2:20 PM 82.4 °F 82.5 °F 59.0 °F 45% 29.95 in 6.2 mi SE 4.6 mph - N/A   Partly Cloudy
2:50 PM 82.4 °F 82.5 °F 59.0 °F 45% 29.95 in 6.2 mi SE 4.6 mph - N/A   Partly Cloudy
3:20 PM 82.4 °F 82.9 °F 60.8 °F 48% 29.95 in 6.2 mi NE 5.8 mph - N/A   Partly Cloudy
3:50 PM 82.4 °F 82.9 °F 60.8 °F 48% 29.95 in 6.2 mi East 4.6 mph - N/A   Partly Cloudy
4:20 PM 82.4 °F 82.5 °F 59.0 °F 45% 29.95 in 6.2 mi East 4.6 mph - N/A   Partly Cloudy
4:50 PM 84.2 °F 84.4 °F 60.8 °F 45% 29.92 in 6.2 mi SE 8.1 mph - N/A   Partly Cloudy
5:20 PM 84.2 °F 84.4 °F 60.8 °F 45% 29.92 in 6.2 mi SE 8.1 mph - N/A   Partly Cloudy
5:50 PM 87.8 °F 87.1 °F 59.0 °F 38% 29.92 in 6.2 mi SE 6.9 mph - N/A   Partly Cloudy
6:20 PM 82.4 °F 82.9 °F 60.8 °F 48% 29.92 in 6.2 mi SSE 5.8 mph - N/A   Partly Cloudy
6:50 PM 82.4 °F 82.9 °F 60.8 °F 48% 29.92 in 6.2 mi SE 5.8 mph - N/A   Partly Cloudy
7:20 PM 82.4 °F 82.9 °F 60.8 °F 48% 29.92 in 6.2 mi SE 5.8 mph - N/A   Partly Cloudy
7:50 PM 82.4 °F 82.9 °F 60.8 °F 48% 29.92 in - East 4.6 mph - N/A   Clear
8:20 PM 80.6 °F 81.5 °F 60.8 °F 51% 29.92 in - NNW 5.8 mph - N/A   Clear
8:50 PM 78.8 °F - 57.2 °F 47% 29.95 in - North 6.9 mph - N/A   Clear